OBJECT_NAME,OBJECT_ID,EPOCH,MEAN_MOTION,ECCENTRICITY,INCLINATION,RA_OF_ASC_NODE,ARG_OF_PERICENTER,MEAN_ANOMALY,EPHEMERIS_TYPE,CLASSIFICATION_TYPE,NORAD_CAT_ID,ELEMENT_SET_NO,REV_AT_EPOCH,BSTAR,MEAN_MOTION_DOT,MEAN_MOTION_DDOT ISS (ZARYA),1998-067A,2026-09-12T03:26:27.458304,15.49086104,.0004961,51.6305,229.7248,131.0693,229.0724,0,U,25544,999,58523,.9835E-4,.4988E-4,0 POISK,2009-060A,2026-09-12T03:26:27.458304,15.49086104,.0004961,51.6305,229.7248,131.0693,229.0724,0,U,36086,999,58608,.9835E-4,.4988E-4,0 CSS (TIANHE),2021-035A,2026-09-12T03:38:29.096160,15.59839597,.0002631,41.4683,154.0266,272.9241,87.1296,0,U,48274,999,30674,.21733E-3,.17671E-3,0 ISS (NAUKA),2021-066A,2026-09-12T03:26:27.458304,15.49086104,.0004961,51.6305,229.7248,131.0693,229.0724,0,U,49044,999,58612,.9835E-4,.4988E-4,0 FREGAT DEB,2011-037PF,2026-09-11T23:13:07.611744,12.44351774,.0940641,51.6436,100.5439,115.1330,255.0053,0,U,49271,999,23584,.2364E-1,.16685E-3,0 CSS (WENTIAN),2022-085A,2026-09-11T21:29:41.780544,15.59830354,.00026058,41.4684,155.5829,272.3198,87.7342,0,U,53239,999,28823,.21444354E-3,.17425E-3,0 CSS (MENGTIAN),2022-143A,2026-09-12T03:38:29.096160,15.59839597,.0002631,41.4683,154.0266,272.9241,87.1296,0,U,54216,999,30762,.21733E-3,.17671E-3,0 HRC MONOBLOCK CAMERA,1998-067XR,2026-09-11T23:58:10.216704,15.93120036,.000493,51.6152,187.9482,121.1727,238.9764,0,U,66052,999,5174,.5626E-3,.200026E-2,.26303E-4 SZ-21 MODULE,2025-246C,2026-09-12T01:00:48.843072,15.84902372,.0012068,41.4697,123.1786,281.0811,78.8679,0,U,66515,999,4748,.26718E-3,.64969E-3,0 DUPLEX,1998-067XS,2026-09-11T23:28:35.025024,15.69301116,.000443,51.6245,209.0602,124.2774,235.8643,0,U,66906,999,4425,.39561E-3,.46896E-3,0 KNACKSAT-2,1998-067XZ,2026-09-11T07:01:09.547968,15.68357883,.00078339,51.6239,218.7617,147.0851,213.0634,0,U,67683,999,3375,.49913241E-3,.57179E-3,0 GXIBA-1,1998-067YB,2026-09-11T22:03:54.813888,15.72205424,.00085815,51.6227,213.1648,146.7135,213.4404,0,U,67685,999,3388,.61551724E-3,.83313E-3,0 UITMSAT-2,1998-067YC,2026-09-10T14:14:52.382976,15.82332066,.000784,51.6208,214.7641,114.8320,245.3498,0,U,67686,999,3374,.83074233E-3,.179058E-2,0 LEOPARD,1998-067YD,2026-09-11T21:41:00.377376,15.73146341,.00077969,51.6252,213.8470,125.5822,234.5904,0,U,67687,999,3379,.10036766E-2,.142785E-2,0 HMU-SAT2,1998-067YE,2026-09-11T07:31:12.856800,15.77060963,.00077494,51.6244,213.6175,117.7047,242.4741,0,U,67688,999,3374,.69659605E-3,.117037E-2,0 CREW DRAGON 12,2026-031A,2026-09-11T15:03:17.011872,15.49080967,.00049581,51.6304,232.2787,129.1564,230.9865,0,U,67796,999,58608,.10088498E-3,.5127E-4,0 CYGNUS NG-24,2026-079A,2026-09-11T15:03:17.011872,15.49080967,.00049581,51.6304,232.2787,129.1564,230.9865,0,U,68689,999,58620,.10088498E-3,.5127E-4,0 PROGRESS-MS 34,2026-093A,2026-09-11T15:03:17.011872,15.49080967,.00049581,51.6304,232.2787,129.1564,230.9865,0,U,68837,999,58624,.10088498E-3,.5127E-4,0 TIANZHOU-10,2026-102A,2026-09-11T21:29:41.780544,15.59830354,.00026058,41.4684,155.5829,272.3198,87.7342,0,U,69049,999,30748,.21444354E-3,.17425E-3,0 SHENZHOU-23 (SZ-23),2026-113A,2026-09-11T21:29:41.780544,15.59830354,.00026058,41.4684,155.5829,272.3198,87.7342,0,U,69180,999,30726,.21444354E-3,.17425E-3,0 SOYUZ-MS 29,2026-162A,2026-09-11T15:03:17.011872,15.49080967,.00049581,51.6304,232.2787,129.1564,230.9865,0,U,100057,999,58625,.10088498E-3,.5127E-4,0